This demonstration page uses our WeatherBlox Daily Observations layout. Learn more.

Left ArrowRight Arrow

Hourly Observations for April 1, 2017

Temp ( °F °C ) Dew Point ( °F °C ) Humidity (%) Winds ( mph kmh ) Pressure ( in mb ) Visibility ( mi km ) Precip ( " mm )
12:53 am 00:53 Clear 62 16.7 34 1.1 35 35 NNW 8 13 30.07 1018 10 16 0.00 0.00
1:53 am 01:53 Clear 60 15.6 34 1.1 38 38 NNW 9 15 30.07 1018 10 16 0.00 0.00
2:53 am 02:53 Clear 60 15.6 35 1.7 39 39 NNW 8 13 30.06 1018 10 16 0.00 0.00
3:53 am 03:53 Clear 57 13.9 36 2.2 45 45 NNW 8 13 30.06 1018 10 16 0.00 0.00
4:53 am 04:53 Clear 59 15 34 1.1 39 39 NNW 12 19 30.05 1018 10 16 0.00 0.00
5:53 am 05:53 Clear 56 13.3 36 2.2 47 47 NW 9 15 30.06 1018 10 16 0.00 0.00
6:53 am 06:53 Sunny 57 13.9 35 1.7 44 44 NW 12 19 30.07 1018 10 16 0.00 0.00
7:53 am 07:53 Sunny 59 15 35 1.7 41 41 NNW 10 17 30.08 1019 10 16 0.00 0.00
8:53 am 08:53 Sunny 65 18.3 34 1.1 32 32 NNW 10 17 30.07 1018 10 16 0.00 0.00
9:53 am 09:53 Sunny 68 20 33 0.6 27 27 NNW 14 22 30.06 1018 10 16 0.00 0.00
10:53 am 10:53 Sunny 71 21.7 32 0 24 24 N 12 19 30.06 1018 10 16 0.00 0.00
11:53 am 11:53 Sunny 75 23.9 37 2.8 25 25 N 14 22 30.05 1018 10 16 0.00 0.00
12:53 pm 12:53 Sunny 77 25 40 4.4 26 26 NE 9 15 30.03 1017 10 16 0.00 0.00
1:53 pm 13:53 Sunny 80 26.7 45 7.2 29 29 NNE 12 19 29.99 1016 10 16 0.00 0.00
2:53 pm 14:53 Sunny 82 27.8 47 8.3 29 29 NNE 12 19 29.96 1015 10 16 0.00 0.00
3:53 pm 15:53 Sunny 84 28.9 46 7.8 27 27 N 5 7 29.94 1014 10 16 0.00 0.00
4:53 pm 16:53 Sunny 83 28.3 45 7.2 26 26 SE 3 6 29.93 1013 10 16 0.00 0.00
5:53 pm 17:53 Sunny 82 27.8 44 6.7 26 26 Calm 29.91 1013 10 16 0.00 0.00
6:53 pm 18:53 Sunny 80 26.7 51 10.6 37 37 Calm 29.91 1013 10 16 0.00 0.00
7:53 pm 19:53 Clear 71 21.7 51 10.6 49 49 W 3 6 29.91 1013 10 16 0.00 0.00
8:53 pm 20:53 Clear 76 24.4 46 7.8 35 35 NNW 9 15 29.93 1014 10 16 0.00 0.00
9:53 pm 21:53 Clear 74 23.3 46 7.8 37 37 NNW 7 11 29.94 1014 10 16 0.00 0.00
10:53 pm 22:53 Clear 72 22.2 46 7.8 40 40 N 7 11 29.93 1014 10 16 0.00 0.00
11:53 pm 23:53 Clear 71 21.7 46 7.8 41 41 N 12 19 29.95 1014 10 16 0.00 0.00

Powered by AerisWeather